Home   Weather   Great Falls   Past weeks
Flag for USA

Past Weather in Great Falls, Montana, USA — Yesterday and Last 2 Weeks

Now
37 °F

Mostly cloudy.


Feels Like: 34 °F
Forecast: 58 / 27 °F
Wind: 3 mph from Southwest

Location: Great Falls International Airport

Current Time: Oct 15, 2019 at 1:37:36 am

Latest Report: Oct 15, 2019 at 1:09 am


Visibility: 10 mi

Pressure: 30.23 "Hg (26.66 "Hg at 1015m altitude)

Humidity: 79%

Dew Point: 31 °F

Location of Great FallsLocation

Past Weather in Great Falls — Graph

°F

Great Falls Temperature Yesterday

Maximum temperature yesterday: 51 °F (at 11:53 am)
Minimum temperature yesterday: 37 °F (at 5:53 am)
Average temperature yesterday: 44 °F

High & Low Weather Summary for the Past Weeks

 TemperatureHumidityPressure
High69 °F (Oct 7, 3:53 pm)96% (Oct 1, 8:53 am)30.60 "Hg (Oct 1, 8:53 am)
Low2 °F (Oct 10, 6:53 am)20% (Oct 13, 3:53 pm)29.49 "Hg (Oct 8, 7:53 am)
Average34 °F67%30.12 "Hg
* Reported Sep 29 11:30 pm — Oct 14 11:53 pm, Great Falls. Weather by CustomWeather, © 2019

Note: Actual official high and low records may vary slightly from our data, if they occured in-between our weather recording intervals... More about our weather records

Advertising

Great Falls Weather History for the Previous 24 Hours

Scroll right to see more
 ConditionsComfort  
Time TempWeatherWind HumidityBarometerVisibility
11:53 pm
Mon, Oct 14
38 °FOvercast.No wind73%30.27 "Hg10 mi
10:53 pm38 °FOvercast.7 mph73%30.25 "Hg10 mi
9:53 pm39 °FOvercast.8 mph70%30.23 "Hg10 mi
8:53 pm40 °FOvercast.7 mph68%30.22 "Hg10 mi
7:53 pm40 °FMostly cloudy.12 mph70%30.19 "Hg10 mi
6:53 pm40 °FPassing clouds.8 mph68%30.16 "Hg10 mi
5:53 pm46 °FPartly sunny.8 mph54%30.12 "Hg10 mi
4:53 pm47 °FPassing clouds.6 mph52%30.09 "Hg10 mi
3:53 pm48 °FScattered clouds.9 mph50%30.06 "Hg10 mi
2:53 pm48 °FScattered clouds.13 mph54%30.04 "Hg10 mi
1:53 pm50 °FPartly sunny.16 mph50%30.01 "Hg10 mi
12:53 pm45 °FMostly cloudy.12 mph58%30.02 "Hg10 mi
12:08 pm45 °FCloudy.16 mph58%29.95 "Hg10 mi
11:53 am51 °FMostly cloudy.16 mph36%29.95 "Hg10 mi
10:53 am49 °FMore clouds than sun.18 mph44%29.93 "Hg10 mi
9:53 am47 °FMore clouds than sun.18 mph54%29.90 "Hg10 mi
8:53 am44 °FOvercast.12 mph63%29.88 "Hg10 mi
7:53 am42 °FOvercast.13 mph71%29.87 "Hg10 mi
6:53 am42 °FLight rain. Mostly cloudy.10 mph73%29.85 "Hg10 mi
5:53 am37 °FPassing clouds.8 mph79%29.84 "Hg10 mi
4:53 am41 °FPassing clouds.9 mph70%29.80 "Hg10 mi
3:53 am43 °FPassing clouds.12 mph62%29.77 "Hg10 mi
2:53 am46 °FOvercast.12 mph50%29.76 "Hg10 mi
1:53 am46 °FPassing clouds.12 mph48%29.76 "Hg10 mi
Weather by CustomWeather, © 2019

See weather overview